Wind_Speed
21 21 21 21 21 22 22 22 22 23 23 23 23 23 23 23 24 24 24 25 25 25 25 25 25 25 25 25 25 25 25 25 25 25 25 25 25 25 25 25 25 25 24
22 22 22 22 23 23 23 23 23 23 24 24 25 25 25 25 25 25 26 26 26 26 26 26 26 26 26 27 26 26 26 26 26 26 26 26 27 27 27 27 26 26 26
23 23 23 23 24 24 24 24 25 25 25 26 26 26 27 27 27 27 27 28 27 27 27 28 28 28 28 27 28 27 28 28 28 28 27 27 28 28 28 28 28 28 27
23 24 24 24 25 25 26 26 26 26 26 27 27 28 28 28 28 29 29 29 29 29 29 29 30 30 29 29 29 28 28 29 29 29 29 28 28 28 28 29 29 29 28
24 25 25 25 25 25 25 26 27 27 28 28 28 29 29 29 29 29 29 29 30 30 30 31 31 31 31 30 29 29 29 29 29 29 29 29 29 29 29 29 29 30 30
24 25 25 25 25 25 26 27 28 28 29 29 29 29 29 29 29 29 30 30 30 30 31 31 31 31 31 30 30 30 30 29 29 29 28 29 29 29 29 29 29 29 30
24 25 26 26 26 26 27 28 29 29 29 29 29 29 29 28 28 28 29 29 29 29 30 30 30 30 30 29 29 29 28 28 28 28 28 28 28 29 29 29 29 29 29
24 24 26 26 26 27 28 28 29 29 30 30 30 29 28 27 27 27 27 27 28 29 29 29 29 29 29 29 28 27 27 28 28 29 29 29 29 29 29 29 29 29 29
24 24 25 26 26 27 28 28 29 29 29 30 29 28 27 26 27 27 26 27 27 28 28 28 28 28 28 28 28 27 27 28 28 28 28 28 29 29 29 29 29 29 28
25 25 26 26 26 27 27 28 28 29 29 29 29 28 27 27 27 27 27 26 27 27 27 27 27 26 26 27 27 27 27 27 27 27 27 28 27 28 29 29 29 29 28
26 26 25 26 26 27 27 28 28 28 28 28 28 28 27 27 26 26 26 26 26 26 26 26 25 25 26 26 26 26 26 25 25 26 26 27 27 28 28 29 29 29 28
25 24 24 25 25 26 26 26 27 27 27 26 26 26 26 26 25 25 25 25 25 25 25 25 24 24 25 25 25 25 25 25 25 25 26 26 27 27 27 28 29 29 28
24 23 23 23 24 24 25 25 25 25 24 24 24 24 24 23 23 23 23 23 23 24 24 24 24 24 24 24 24 25 25 25 25 25 25 25 25 26 26 26 26 27 28
23 23 24 24 23 23 24 23 23 23 23 23 22 23 22 21 22 22 22 23 23 23 23 23 24 24 24 25 25 25 25 25 25 25 25 25 26 26 25 25 26 26 27
22 23 23 23 24 24 23 23 23 23 22 22 22 22 21 21 21 21 22 22 22 22 22 23 23 24 24 24 25 25 25 25 25 25 26 26 25 26 26 25 25 26 27
22 23 23 23 24 24 23 23 23 23 23 23 23 23 22 21 21 22 22 22 22 21 21 21 22 23 24 24 25 25 25 26 25 25 25 25 25 26 26 26 26 26 27
21 22 22 23 23 23 22 22 22 22 22 22 22 21 20 20 20 20 20 21 21 21 22 22 23 23 24 25 25 25 25 25 25 25 24 24 24 25 26 26 26 26 27
22 22 22 22 22 22 22 22 22 21 21 21 20 19 19 20 20 20 21 21 22 22 23 22 23 23 24 25 25 25 25 25 24 24 23 23 23 24 25 25 25 25 25
21 22 22 22 21 21 21 21 20 20 20 19 19 19 19 20 20 20 21 21 22 23 23 23 23 24 24 24 24 25 25 24 24 24 24 24 24 23 24 24 24 24 24
22 22 22 21 20 20 21 21 21 20 20 20 20 20 20 20 20 20 21 21 22 22 22 23 23 23 23 23 23 23 23 24 24 24 24 24 23 23 23 23 23 24 24
22 22 22 21 21 20 21 21 21 21 21 20 20 20 21 20 21 21 21 22 22 22 22 22 22 22 22 22 22 22 23 23 24 23 23 24 24 24 23 24 24 24 24
22 22 22 21 21 21 21 22 22 22 22 21 21 21 21 21 21 21 22 22 22 22 22 22 22 22 21 21 21 21 21 22 22 23 23 24 24 24 25 25 25 25 25
23 22 22 22 22 22 22 22 21 22 22 22 22 22 22 22 22 22 23 23 23 23 23 22 22 22 22 22 22 21 21 22 23 24 24 24 24 25 25 26 26 26 26
23 23 23 22 22 22 22 22 22 22 22 23 23 22 22 22 23 23 23 23 24 24 23 23 22 23 23 22 22 23 23 24 24 24 24 25 25 25 25 26 26 27 27
22 22 22 22 22 22 22 22 23 23 23 23 23 24 23 23 23 24 24 24 24 24 23 23 23 23 23 24 24 25 25 26 26 26 26 26 26 26 26 26 27 27 27
23 23 23 23 23 23 24 24 24 24 24 24 25 25 25 25 25 25 25 25 25 24 24 24 25 25 25 26 26 26 27 27 27 27 27 26 26 27 27 27 28 28 28
Wind_Direction
273 274 273 272 270 270 272 274 276 277 277 279 282 283 281 280 279 279 280 280 280 279 280 280 281 283 282 280 279 278 276 274 272 271 270 269 268 267 265 265 264 263 261
273 273 273 273 274 274 274 275 277 278 278 279 281 281 280 280 280 280 281 281 281 280 280 279 279 280 280 278 278 278 277 275 273 271 270 269 268 266 265 264 264 263 262
272 272 272 272 274 275 276 276 277 278 280 281 281 281 281 281 281 281 280 280 280 281 280 280 280 280 280 279 277 277 276 274 273 272 270 269 267 265 264 263 262 261 261
272 273 272 272 273 274 276 277 278 278 279 280 280 280 281 281 281 281 281 280 280 281 281 281 280 280 280 280 278 276 275 274 273 271 270 270 268 266 264 263 261 260 259
272 274 274 274 275 275 276 278 280 280 280 280 281 282 281 280 280 280 280 280 279 280 281 282 281 280 281 280 279 276 275 274 271 270 269 269 268 265 264 262 261 260 258
273 274 274 274 275 277 278 279 280 282 282 281 282 283 282 281 280 280 279 279 280 281 282 282 281 280 280 280 279 277 275 273 271 269 268 269 268 265 264 262 262 261 259
275 273 273 274 274 276 278 279 281 282 283 284 283 283 282 281 281 281 281 279 280 281 282 281 281 281 280 280 279 278 275 272 271 269 269 268 268 266 265 264 263 263 260
275 274 273 273 274 276 278 280 282 282 283 284 285 284 281 280 281 282 281 280 280 282 283 282 281 280 280 279 277 277 276 274 274 272 270 269 267 265 264 264 263 262 261
277 277 276 275 275 277 279 281 281 282 283 283 285 285 284 282 282 282 283 282 282 283 284 283 282 280 280 279 277 277 277 277 277 275 273 271 268 265 264 263 263 262 261
277 277 277 278 278 279 280 281 282 282 283 284 284 285 283 282 283 283 283 283 284 283 283 284 283 281 279 279 279 278 278 278 277 275 273 272 270 266 264 263 262 262 261
277 277 277 278 279 280 281 282 284 285 285 285 285 283 283 283 283 284 284 284 285 285 284 284 283 281 280 279 279 278 278 279 277 275 274 272 269 267 265 263 262 261 261
279 279 279 279 280 281 283 284 286 286 286 286 285 283 283 284 284 284 286 286 286 286 286 284 282 280 280 278 279 279 278 278 277 276 275 274 271 268 267 265 262 259 259
277 278 280 281 281 283 284 285 286 286 286 286 285 285 284 282 282 284 286 286 286 286 285 284 281 279 280 280 281 280 278 279 278 277 277 276 273 269 268 265 262 259 260
275 277 280 282 283 285 286 286 285 286 286 285 286 285 283 282 283 284 286 287 288 287 286 284 281 279 280 282 283 281 280 279 278 277 278 278 275 271 268 267 264 262 261
276 278 280 282 283 285 287 285 285 285 287 287 286 285 284 283 284 285 286 288 289 289 289 287 284 281 281 283 284 283 280 280 279 278 278 278 276 271 267 266 265 262 262
277 280 281 282 284 285 285 285 286 286 286 288 287 287 285 285 285 286 286 288 289 289 289 289 286 284 283 284 284 283 282 281 279 278 278 277 276 273 268 267 266 263 262
279 281 282 283 284 284 283 283 284 285 285 285 285 285 284 284 285 286 287 289 289 289 290 288 287 288 286 284 283 283 283 282 279 277 278 277 276 274 271 268 267 265 263
280 282 283 284 284 283 282 283 284 285 285 286 284 285 287 288 288 288 289 290 289 289 290 289 289 289 290 287 283 282 282 281 281 278 277 276 276 275 272 269 268 267 264
281 283 284 284 282 281 282 282 283 284 285 285 285 285 287 289 289 289 291 291 292 292 291 291 290 291 291 290 286 282 281 281 281 279 277 275 275 275 272 270 268 267 264
280 282 283 283 283 282 282 283 283 285 285 284 284 283 285 287 289 290 291 292 292 293 293 291 290 291 291 291 289 286 284 283 282 280 277 275 274 274 273 271 270 268 266
280 280 280 280 281 282 282 282 284 285 286 286 285 285 285 286 287 289 290 291 292 293 294 292 292 292 292 292 290 288 286 284 283 280 276 276 275 273 273 272 271 270 268
279 279 279 280 281 282 282 282 282 284 284 285 287 285 285 287 287 288 289 291 291 292 293 293 293 294 294 290 288 289 288 287 285 283 280 277 275 273 273 271 271 270 269
277 278 279 280 281 282 283 282 282 282 284 285 287 287 287 288 289 290 290 290 291 293 293 291 290 291 291 290 288 288 290 290 288 287 284 281 277 274 272 272 271 270 270
277 277 279 280 281 282 283 282 282 282 283 285 286 287 288 288 289 290 291 291 291 292 293 292 292 292 291 292 290 290 291 290 288 289 286 283 281 280 278 275 272 272 272
277 277 278 280 282 283 284 284 283 282 283 284 286 287 288 289 289 291 292 291 291 291 292 291 291 291 291 291 291 290 290 290 288 287 287 283 281 280 280 278 275 274 273
277 277 278 279 281 282 283 284 283 283 283 284 286 287 287 288 288 290 291 290 289 289 290 291 291 290 291 291 291 291 291 292 291 289 287 283 282 281 279 278 277 275 275
Height
5786 5786 5786 5785 5785 5785 5784 5783 5782 5781 5781 5780 5779 5777 5776 5775 5774 5773 5772 5771 5770 5769 5768 5766 5765 5764 5763 5761 5760 5760 5759 5759 5759 5759 5759 5759 5759 5759 5759 5759 5759 5760 5761
5780 5780 5779 5779 5778 5778 5777 5776 5775 5774 5773 5772 5771 5770 5769 5768 5766 5765 5764 5763 5762 5761 5760 5758 5757 5756 5755 5754 5753 5752 5751 5751 5751 5751 5751 5751 5751 5751 5751 5751 5752 5753 5753
5774 5774 5773 5772 5771 5771 5770 5769 5768 5767 5766 5765 5763 5762 5761 5759 5758 5757 5755 5754 5753 5752 5751 5750 5749 5748 5747 5746 5744 5743 5743 5742 5742 5742 5742 5742 5742 5742 5742 5743 5744 5745 5745
5767 5766 5766 5765 5764 5763 5762 5761 5760 5759 5757 5756 5755 5753 5752 5750 5749 5748 5746 5745 5744 5743 5742 5741 5740 5739 5738 5737 5735 5734 5733 5733 5732 5732 5732 5732 5732 5732 5733 5734 5735 5736 5737
5759 5758 5758 5757 5756 5755 5754 5753 5752 5750 5749 5747 5746 5744 5742 5740 5739 5738 5737 5736 5735 5734 5733 5731 5730 5729 5728 5726 5725 5724 5723 5723 5722 5722 5722 5722 5723 5723 5724 5724 5725 5726 5727
5752 5751 5750 5749 5749 5748 5747 5745 5744 5742 5740 5738 5736 5734 5732 5730 5728 5727 5726 5726 5725 5724 5723 5722 5720 5719 5717 5716 5715 5714 5713 5713 5713 5712 5713 5713 5713 5713 5714 5715 5716 5717 5718
5744 5743 5742 5741 5741 5740 5739 5737 5735 5733 5731 5729 5727 5725 5723 5721 5719 5717 5716 5716 5715 5714 5713 5712 5711 5709 5708 5707 5705 5704 5703 5703 5703 5703 5703 5703 5704 5704 5705 5706 5706 5707 5708
5736 5735 5734 5733 5733 5732 5730 5728 5726 5724 5722 5720 5717 5715 5714 5712 5710 5709 5707 5707 5706 5705 5703 5702 5701 5700 5699 5698 5697 5696 5695 5694 5694 5694 5694 5694 5694 5695 5695 5696 5697 5698 5699
5729 5727 5726 5725 5724 5723 5722 5720 5718 5715 5713 5711 5709 5707 5705 5704 5702 5701 5699 5698 5697 5696 5694 5693 5692 5691 5690 5689 5688 5687 5686 5686 5684 5684 5684 5684 5684 5685 5685 5686 5687 5688 5689
5721 5720 5719 5717 5716 5715 5713 5711 5709 5706 5704 5702 5700 5698 5697 5695 5694 5692 5691 5690 5689 5687 5686 5685 5683 5683 5682 5680 5679 5679 5678 5677 5676 5675 5675 5674 5674 5675 5675 5677 5678 5679 5680
5713 5712 5711 5709 5708 5706 5704 5702 5700 5698 5695 5693 5692 5690 5688 5687 5686 5684 5683 5681 5680 5679 5677 5676 5675 5674 5673 5672 5671 5670 5669 5669 5668 5667 5666 5666 5665 5665 5666 5667 5668 5669 5671
5705 5704 5703 5701 5700 5698 5696 5694 5691 5689 5687 5685 5683 5681 5680 5679 5678 5676 5675 5674 5672 5671 5669 5668 5667 5666 5665 5664 5663 5662 5661 5660 5660 5659 5658 5657 5657 5656 5657 5657 5658 5660 5662
5697 5696 5695 5694 5692 5690 5688 5686 5684 5681 5679 5677 5675 5674 5673 5671 5670 5669 5668 5666 5665 5663 5662 5661 5660 5659 5658 5657 5656 5654 5653 5652 5652 5651 5650 5649 5648 5648 5648 5648 5649 5650 5652
5690 5689 5688 5686 5685 5683 5680 5678 5676 5674 5672 5670 5669 5667 5666 5665 5664 5663 5661 5660 5658 5656 5655 5653 5652 5651 5650 5649 5648 5647 5646 5645 5644 5643 5642 5641 5640 5639 5639 5639 5640 5641 5643
5683 5682 5680 5679 5677 5675 5673 5671 5669 5667 5665 5664 5662 5661 5659 5658 5657 5656 5655 5653 5651 5650 5648 5646 5645 5644 5643 5642 5640 5639 5638 5637 5636 5635 5634 5633 5632 5631 5631 5631 5632 5633 5634
5676 5675 5673 5672 5670 5668 5666 5664 5662 5661 5659 5657 5656 5655 5653 5652 5651 5650 5648 5646 5644 5643 5641 5639 5638 5636 5635 5634 5633 5631 5630 5629 5627 5627 5626 5625 5624 5623 5623 5623 5623 5624 5625
5668 5667 5666 5664 5663 5661 5659 5657 5656 5654 5652 5651 5649 5648 5646 5645 5644 5643 5641 5639 5637 5636 5634 5633 5631 5630 5628 5626 5625 5623 5622 5620 5619 5618 5617 5617 5616 5615 5615 5615 5614 5615 5616
5661 5660 5659 5657 5656 5654 5652 5650 5649 5647 5646 5644 5643 5641 5640 5639 5637 5636 5634 5633 5631 5629 5627 5626 5624 5622 5621 5619 5617 5616 5614 5612 5611 5610 5609 5609 5608 5607 5607 5606 5606 5607 5608
5654 5653 5652 5650 5648 5647 5645 5644 5642 5641 5640 5638 5637 5635 5634 5633 5631 5630 5628 5626 5624 5622 5620 5618 5617 5615 5613 5611 5609 5608 5606 5605 5603 5602 5601 5601 5600 5599 5599 5598 5598 5599 5599
5648 5646 5645 5643 5642 5640 5639 5637 5636 5635 5633 5632 5631 5630 5628 5626 5625 5623 5622 5620 5618 5616 5613 5611 5610 5608 5606 5604 5602 5600 5598 5597 5595 5594 5593 5592 5592 5591 5591 5591 5591 5591 5591
5641 5639 5638 5636 5635 5634 5632 5631 5630 5628 5627 5626 5625 5623 5622 5620 5618 5617 5615 5613 5611 5609 5607 5604 5602 5600 5599 5597 5595 5593 5591 5589 5587 5586 5585 5584 5583 5583 5583 5583 5583 5583 5583
5634 5632 5631 5629 5628 5627 5626 5624 5623 5622 5621 5620 5618 5617 5615 5613 5612 5610 5609 5607 5604 5602 5600 5598 5595 5593 5591 5589 5587 5586 5584 5582 5580 5578 5577 5576 5575 5575 5575 5575 5575 5575 5575
5626 5625 5624 5622 5621 5620 5619 5617 5616 5615 5614 5613 5612 5610 5609 5607 5605 5604 5602 5600 5598 5595 5593 5591 5589 5586 5584 5582 5581 5579 5577 5576 5573 5571 5570 5569 5568 5567 5567 5566 5566 5566 5567
5619 5618 5617 5615 5614 5613 5612 5611 5609 5608 5607 5606 5605 5603 5602 5600 5599 5597 5595 5593 5591 5588 5586 5584 5582 5580 5578 5576 5574 5572 5570 5568 5566 5564 5562 5561 5560 5559 5559 5558 5558 5558 5558
5612 5611 5610 5608 5607 5606 5605 5604 5603 5601 5600 5599 5598 5596 5595 5593 5592 5590 5588 5586 5584 5581 5579 5577 5575 5573 5571 5569 5567 5565 5563 5560 5558 5556 5555 5554 5553 5552 5551 5550 5549 5549 5548
5605 5604 5603 5601 5600 5599 5598 5596 5595 5594 5593 5592 5590 5589 5588 5586 5585 5583 5581 5578 5576 5574 5572 5570 5568 5566 5564 5562 5559 5557 5555 5553 5551 5549 5547 5545 5544 5543 5542 5541 5540 5540 5539